Location: Bittkow
(50.3000°N, 19.0000°E)
Time: 15:13:35
(UTC+00:00)

Cosmos 1818 - Pass Details

Date: 19 September 2020
Orbit: 775 x 798 km, 65.0° (Epoch: 27 October)

Event Time Altitude Azimuth Distance (km) Brightness Sun altitude
Exits shadow 01:05:34 68° 56° (ENE) 855 3.8 -29.5°
Drops below altitude 10° 01:10:20 10° 41° (NE) 2,374 7.0 -28.9°
Sets 01:12:46 0° 41° (NE) 3,309 8.0 -28.7°
